Weather History for Brunswick, GA

Change the Weather History Date:

Tuesday, June 12, 2012

  Actual Average Record
Temperature  
Mean Temperature 78 °F -  
Max Temperature 87 °F 88 °F 98 °F (2013)
Min Temperature 69 °F 69 °F 60 °F (1988)
Cooling Degree Days 13    
Growing Degree Days 28 (Base 50)    
Moisture  
Dew Point 71 °F    
Average Humidity 81    
Maximum Humidity 100    
Minimum Humidity 58    
Precipitation  
Precipitation 0.00 in - - ()
Sea Level Pressure  
Sea Level Pressure 30.00 in    
Wind  
Wind Speed 5 mph (SSW)    
Max Wind Speed 18 mph    
Max Gust Speed 29 mph    
Visibility 10 miles    
Events Thunderstorm    
Averages and records for this station are not official NWS values.
T = Trace of Precipitation, MM = Missing Value Source: NWS Daily Summary

Daily Weather History Graph

Daily Weather History Graph

Search for Another Location

Airport:

Trip Planner

Search our weather history database for the weather conditions in past years. The results will help you decide how hot, cold, wet, or windy it might be!

Date:

Astronomy

Jun. 12, 2012 Rise Set
Actual Time 6:21 AM EDT 8:30 PM EDT
Civil Twilight 5:53 AM EDT 8:58 PM EDT
Nautical Twilight 5:19 AM EDT 9:32 PM EDT
Astronomical Twilight 4:42 AM EDT 10:09 PM EDT
Moon 1:46 AM EDT (6/12) 2:36 PM EDT (6/12)
Length of Visible Light 15h 05m
Length of Day
14h 09m
Last Quarter, 38% of the Moon is Illuminated
Jun 12
Last Quarter
Jun 19
New
Jun 26
First Quarter
Jul 3
Full
Jul 10
Last Quarter

Hourly Weather History & Observations

Time (EDT) Temp. Heat Index Dew Point Humidity Pressure Visibility Wind Dir Wind Speed Gust Speed Precip Events Conditions
12:15 AM 73.4 °F - 69.8 °F 88% 30.11 in 10.0 mi Calm Calm - N/A   Clear
12:35 AM 71.6 °F - 69.8 °F 94% 30.10 in 5.0 mi Calm Calm - N/A   Clear
12:55 AM 69.8 °F - 69.8 °F 100% 30.08 in 7.0 mi Calm Calm - N/A   Clear
1:15 AM 71.6 °F - 69.8 °F 94% 30.08 in 10.0 mi Calm Calm - N/A   Clear
1:35 AM 71.6 °F - 69.8 °F 94% 30.08 in 10.0 mi Calm Calm - N/A   Clear
1:55 AM 71.6 °F - 69.8 °F 94% 30.07 in 10.0 mi Calm Calm - N/A   Clear
2:15 AM 71.6 °F - 69.8 °F 94% 30.06 in 10.0 mi Calm Calm - N/A   Clear
2:35 AM 71.6 °F - 69.8 °F 94% 30.06 in 7.0 mi South 3.5 mph - N/A   Clear
2:55 AM 73.4 °F - 71.6 °F 94% 30.05 in 10.0 mi SSW 3.5 mph - N/A   Clear
3:15 AM 73.4 °F - 71.6 °F 94% 30.05 in 10.0 mi SSW 3.5 mph - N/A   Clear
3:35 AM 73.4 °F - 71.6 °F 94% 30.05 in 10.0 mi SSW 4.6 mph - N/A   Clear
3:55 AM 73.4 °F - 71.6 °F 94% 30.03 in 10.0 mi South 4.6 mph - N/A   Clear
4:15 AM 73.4 °F - 71.6 °F 94% 30.04 in 10.0 mi SSW 6.9 mph - N/A   Clear
4:35 AM 73.4 °F - 71.6 °F 94% 30.03 in 10.0 mi SSW 6.9 mph - N/A   Scattered Clouds
4:55 AM 73.4 °F - 71.6 °F 94% 30.04 in 10.0 mi SSW 6.9 mph - N/A   Scattered Clouds
5:15 AM 73.4 °F - 71.6 °F 94% 30.04 in 10.0 mi SSW 5.8 mph - N/A   Scattered Clouds
5:35 AM 73.4 °F - 71.6 °F 94% 30.04 in 10.0 mi South 8.1 mph - N/A   Mostly Cloudy
5:55 AM 73.4 °F - 71.6 °F 94% 30.04 in 10.0 mi SSW 8.1 mph - N/A   Scattered Clouds
6:15 AM 73.4 °F - 71.6 °F 94% 30.04 in 10.0 mi SSW 8.1 mph - N/A   Clear
6:35 AM 73.4 °F - 71.6 °F 94% 30.04 in 10.0 mi South 8.1 mph - N/A   Clear
6:55 AM 73.4 °F - 71.6 °F 94% 30.04 in 10.0 mi SSW 10.4 mph - N/A   Scattered Clouds
7:15 AM 73.4 °F - 71.6 °F 94% 30.04 in 10.0 mi South 9.2 mph - N/A   Clear
7:35 AM 73.4 °F - 71.6 °F 94% 30.04 in 10.0 mi South 8.1 mph - N/A   Clear
7:55 AM 75.2 °F - 71.6 °F 89% 30.04 in 10.0 mi South 10.4 mph - N/A   Scattered Clouds
8:15 AM 77.0 °F - 71.6 °F 83% 30.04 in 10.0 mi SSW 10.4 mph - N/A   Scattered Clouds
8:35 AM 77.0 °F - 71.6 °F 83% 30.03 in 10.0 mi SSW 8.1 mph - N/A   Mostly Cloudy
8:55 AM 78.8 °F - 71.6 °F 78% 30.04 in 10.0 mi SSW 5.8 mph - N/A   Mostly Cloudy
9:15 AM 80.6 °F 84.6 °F 71.6 °F 74% 30.03 in 10.0 mi SSW 8.1 mph - N/A   Scattered Clouds
9:35 AM 80.6 °F 85.4 °F 73.4 °F 79% 30.03 in 10.0 mi SW 6.9 mph - N/A   Clear
9:55 AM 82.4 °F 88.2 °F 73.4 °F 74% 30.03 in 10.0 mi SW 4.6 mph - N/A   Clear
10:15 AM 82.4 °F 88.2 °F 73.4 °F 74% 30.03 in 10.0 mi SW 8.1 mph - N/A   Clear
10:35 AM 84.2 °F 90.9 °F 73.4 °F 70% 30.03 in 10.0 mi WSW 10.4 mph - N/A   Scattered Clouds
10:55 AM 84.2 °F 90.9 °F 73.4 °F 70% 30.03 in 10.0 mi WSW 9.2 mph - N/A   Mostly Cloudy
11:15 AM 86.0 °F 91.8 °F 71.6 °F 62% 30.03 in 10.0 mi WSW 12.7 mph - N/A   Mostly Cloudy
11:35 AM 86.0 °F 91.8 °F 71.6 °F 62% 30.03 in 10.0 mi WSW 10.4 mph - N/A   Mostly Cloudy
11:55 AM 84.2 °F 89.6 °F 71.6 °F 66% 30.03 in 10.0 mi WSW 10.4 mph - N/A   Mostly Cloudy
12:15 PM 86.0 °F 91.8 °F 71.6 °F 62% 30.02 in 10.0 mi WSW 10.4 mph - N/A   Scattered Clouds
12:35 PM 86.0 °F 91.8 °F 71.6 °F 62% 30.02 in 7.0 mi SW 15.0 mph 20.7 mph N/A   Mostly Cloudy
12:55 PM 84.2 °F 90.9 °F 73.4 °F 70% 30.01 in 10.0 mi WSW 12.7 mph 16.1 mph N/A   Scattered Clouds
1:15 PM 87.8 °F 93.8 °F 71.6 °F 58% 30.00 in 10.0 mi SW 11.5 mph - N/A   Scattered Clouds
1:35 PM 87.8 °F 93.8 °F 71.6 °F 58% 29.99 in 10.0 mi West 12.7 mph - N/A Thunderstorm Thunderstorm
1:55 PM 87.8 °F 93.8 °F 71.6 °F 58% 29.98 in 10.0 mi SW 11.5 mph 17.3 mph N/A Thunderstorm Mostly Cloudy
2:15 PM 80.6 °F 83.2 °F 68.0 °F 65% 30.00 in 10.0 mi WSW 18.4 mph 28.8 mph N/A Thunderstorm Thunderstorm
2:35 PM 75.2 °F - 69.8 °F 83% 29.98 in 10.0 mi Calm Calm - N/A Thunderstorm Overcast
2:55 PM 77.0 °F - 71.6 °F 83% 29.98 in 10.0 mi West 4.6 mph - N/A Thunderstorm Scattered Clouds
3:15 PM 78.8 °F - 71.6 °F 78% 29.99 in 10.0 mi Calm Calm - N/A Thunderstorm Clear
3:35 PM 80.6 °F 85.4 °F 73.4 °F 79% 29.98 in 10.0 mi Calm Calm - N/A Thunderstorm Thunderstorm
3:55 PM 82.4 °F 88.2 °F 73.4 °F 74% 29.98 in 10.0 mi South 8.1 mph - N/A Thunderstorm Thunderstorm
4:15 PM 80.6 °F 84.6 °F 71.6 °F 74% 29.98 in 10.0 mi South 8.1 mph - N/A Thunderstorm Mostly Cloudy
4:35 PM 80.6 °F 83.9 °F 69.8 °F 70% 29.97 in 10.0 mi SSW 9.2 mph - N/A   Scattered Clouds
4:55 PM 80.6 °F 83.9 °F 69.8 °F 70% 29.96 in 10.0 mi SSW 5.8 mph - N/A   Clear
5:15 PM 80.6 °F 83.9 °F 69.8 °F 70% 29.94 in 10.0 mi SSW 6.9 mph - N/A   Clear
5:35 PM 80.6 °F 83.9 °F 69.8 °F 70% 29.94 in 10.0 mi SSW 6.9 mph - N/A   Clear
5:55 PM 82.4 °F 87.2 °F 71.6 °F 70% 29.93 in 10.0 mi SW 8.1 mph - N/A   Clear
6:15 PM 80.6 °F 84.6 °F 71.6 °F 74% 29.93 in 10.0 mi South 9.2 mph - N/A   Clear
6:35 PM 80.6 °F 84.6 °F 71.6 °F 74% 29.93 in 10.0 mi SSW 8.1 mph - N/A   Clear
6:55 PM 80.6 °F 84.6 °F 71.6 °F 74% 29.93 in 10.0 mi SSW 11.5 mph - N/A   Clear
7:15 PM 80.6 °F 84.6 °F 71.6 °F 74% 29.93 in 10.0 mi SSW 6.9 mph - N/A   Clear
7:35 PM 78.8 °F - 71.6 °F 78% 29.93 in 10.0 mi SW 6.9 mph - N/A   Clear
7:55 PM 78.8 °F - 71.6 °F 78% 29.93 in 10.0 mi SSW 4.6 mph - N/A   Clear
8:15 PM 78.8 °F - 71.6 °F 78% 29.93 in 10.0 mi South 5.8 mph - N/A   Clear
8:35 PM 77.0 °F - 71.6 °F 83% 29.93 in 10.0 mi SSW 4.6 mph - N/A   Scattered Clouds
8:55 PM 78.8 °F - 71.6 °F 78% 29.93 in 10.0 mi South 3.5 mph - N/A   Clear
9:15 PM 77.0 °F - 71.6 °F 83% 29.93 in 10.0 mi South 3.5 mph - N/A Thunderstorm Scattered Clouds
9:35 PM 77.0 °F - 71.6 °F 83% 29.93 in 10.0 mi South 4.6 mph - N/A   Mostly Cloudy
9:55 PM 77.0 °F - 71.6 °F 83% 29.93 in 10.0 mi SSE 5.8 mph - N/A   Scattered Clouds
10:15 PM 77.0 °F - 71.6 °F 83% 29.94 in 10.0 mi SSW 3.5 mph - N/A Thunderstorm Thunderstorm
10:35 PM 77.0 °F - 71.6 °F 83% 29.95 in 10.0 mi SSW 8.1 mph - N/A   Clear
10:55 PM 77.0 °F - 71.6 °F 83% 29.95 in 10.0 mi South 6.9 mph - N/A Thunderstorm Mostly Cloudy
11:15 PM 75.2 °F - 71.6 °F 89% 29.95 in 10.0 mi SSW 4.6 mph - N/A   Mostly Cloudy
11:35 PM 75.2 °F - 71.6 °F 89% 29.95 in 10.0 mi South 5.8 mph - N/A Thunderstorm Mostly Cloudy
11:55 PM 75.2 °F - 71.6 °F 89% 29.95 in 10.0 mi SSW 6.9 mph - N/A Thunderstorm Overcast